Caldwell, NJ

7:05 PM EST on November 21, 2019 (GMT -0500)
Essex County

Weather History for KCDW - October, 2019

Change the Weather History Date:

Thursday, October 17, 2019

  Actual Average Record
Temperature  
Mean Temperature 55 °F -  
Max Temperature 59 °F 65 °F 83 °F (1956)
Min Temperature 53 °F 41 °F 30 °F (1978)
Degree Days  
Heating Degree Days 10    
Growing Degree Days 5 (Base 50)    
Moisture  
Dew Point 41 °F    
Average Humidity 60    
Maximum Humidity 74    
Minimum Humidity 49    
Precipitation  
Precipitation 0.00 in - - ()
Sea Level Pressure  
Sea Level Pressure 29.40 in    
Wind  
Wind Speed 14 mph ()    
Max Wind Speed 24 mph    
Max Gust Speed 39 mph    
Visibility 10.0 miles    
Events      
Averages and records for this station are not official NWS values.
T = Trace of Precipitation, MM = Missing Value Source: Averaged Metar Reports

Daily Weather History Graph

Daily Weather History Graph

Search for Another Location

Airport or City:

Astronomy

Oct. 17, 2019 Rise Set
Actual Time 7:10 AM EDT 6:13 PM EDT
Civil Twilight 6:42 AM EDT 6:41 PM EDT
Nautical Twilight 6:10 AM EDT 7:13 PM EDT
Astronomical Twilight 5:38 AM EDT 7:45 PM EDT
Moon 8:42 PM EDT (10/17) 10:40 AM EDT (10/17)
Length of Visible Light 11h 59m
Length of Day
11h 03m
Waning Gibbous, 87% of the Moon is Illuminated
Oct 17
Waning Gibbous
Oct 21
Last Quarter
Oct 27
New
Nov 4
First Quarter
Nov 12
Full

Hourly Weather History & Observations

Time (EDT) Temp. Dew Point Humidity Pressure Visibility Wind Dir Wind Speed Gust Speed Precip Events Conditions
12:53 AM 53.1 °F 45.0 °F 74% 29.29 in 10.0 mi NW 18.4 mph 25.3 mph N/A   Overcast
1:12 AM 53.1 °F 44.1 °F 71% 29.28 in 10.0 mi WNW 19.6 mph 29.9 mph N/A   Mostly Cloudy
1:32 AM 53.1 °F 44.1 °F 71% 29.29 in 10.0 mi West 15.0 mph 24.2 mph N/A   Mostly Cloudy
1:53 AM 53.1 °F 45.0 °F 74% 29.30 in 10.0 mi WNW 11.5 mph - N/A   Overcast
2:32 AM 54.0 °F 43.0 °F 66% 29.28 in 10.0 mi West 15.0 mph 27.6 mph N/A   Overcast
2:53 AM 53.1 °F 42.1 °F 66% 29.30 in 10.0 mi WNW 11.5 mph 25.3 mph N/A   Overcast
3:53 AM 53.1 °F 39.9 °F 61% 29.30 in 10.0 mi WNW 13.8 mph 23.0 mph N/A   Scattered Clouds
4:53 AM 53.1 °F 41.0 °F 64% 29.31 in 10.0 mi West 12.7 mph 19.6 mph N/A   Mostly Cloudy
5:53 AM 53.1 °F 41.0 °F 64% 29.30 in 10.0 mi West 17.3 mph 25.3 mph N/A   Overcast
6:53 AM 53.1 °F 41.0 °F 64% 29.31 in 10.0 mi West 10.4 mph 20.7 mph N/A   Overcast
7:53 AM 53.1 °F 39.0 °F 59% 29.33 in 10.0 mi West 8.1 mph 24.2 mph N/A   Overcast
8:53 AM 54.0 °F 39.9 °F 59% 29.34 in 10.0 mi West 10.4 mph 24.2 mph N/A   Overcast
9:53 AM 54.0 °F 39.0 °F 57% 29.35 in 10.0 mi West 13.8 mph 25.3 mph N/A   Overcast
11:53 AM 55.9 °F 39.0 °F 53% 29.35 in 10.0 mi West 18.4 mph 29.9 mph N/A   Overcast
12:53 PM 57.9 °F 39.0 °F 49% 29.34 in 10.0 mi WNW 21.9 mph 36.8 mph N/A   Overcast
1:53 PM 57.9 °F 39.0 °F 49% 29.37 in 10.0 mi WNW 17.3 mph 39.1 mph N/A   Overcast
2:53 PM 57.0 °F 41.0 °F 55% 29.39 in 10.0 mi WNW 24.2 mph 33.4 mph N/A   Overcast
3:53 PM 57.9 °F 41.0 °F 53% 29.42 in 10.0 mi WNW 13.8 mph 21.9 mph N/A   Overcast
4:53 PM 57.9 °F 39.0 °F 49% 29.44 in 10.0 mi WNW 18.4 mph 33.4 mph N/A   Mostly Cloudy
5:53 PM 57.0 °F 39.9 °F 53% 29.47 in 10.0 mi WNW 15.0 mph 25.3 mph N/A   Mostly Cloudy
6:53 PM 57.0 °F 39.0 °F 51% 29.51 in 10.0 mi WNW 18.4 mph 34.5 mph N/A   Overcast
7:53 PM 55.9 °F 39.9 °F 55% 29.54 in 10.0 mi WNW 20.7 mph 31.1 mph N/A   Overcast
8:53 PM 55.0 °F 39.9 °F 57% 29.58 in 10.0 mi West 11.5 mph - N/A   Overcast
9:53 PM 55.0 °F 39.9 °F 57% 29.62 in 10.0 mi WNW 13.8 mph 23.0 mph N/A   Overcast
10:53 PM 54.0 °F 41.0 °F 62% 29.65 in 10.0 mi WNW 21.9 mph 28.8 mph N/A   Overcast
11:53 PM 54.0 °F 39.0 °F 57% 29.67 in 10.0 mi WNW 10.4 mph 20.7 mph N/A   Mostly Cloudy